This is the latest recevied weather packets stored in our database for station/object HUGOCO. If no packets are shown the sender has not sent any weather packets the latest 1 day(s).
| Time | Temp. | Humidity | Pressure | Rain* | Wind** | Luminosity | Snow |
|---|---|---|---|---|---|---|---|
| 1777985159 | 2.78° C | 81% | 1010.6 hPa | 0 mm | 7.6 m/s, 359° | - | - |
| 1777984859 | 3.33° C | 81% | 1010.5 hPa | 0 mm | 8.05 m/s, 359° | - | - |
| 1777984559 | 2.78° C | 81% | 1010.3 hPa | 0 mm | 8.05 m/s, 359° | - | - |
| 1777984259 | 3.33° C | 81% | 1010.2 hPa | 0 mm | 8.05 m/s, 359° | - | - |
| 1777983959 | 3.33° C | 83% | 1010 hPa | 0 mm | 7.6 m/s, 359° | - | - |
| 1777983659 | 3.33° C | 84% | 1010 hPa | 0 mm | 7.15 m/s, 359° | - | - |
| 1777983359 | 3.33° C | 86% | 1009.9 hPa | 0 mm | 6.26 m/s, 359° | - | - |
| 1777983059 | 3.33° C | 86% | 1010 hPa | 0 mm | 6.26 m/s, 359° | - | - |
| 1777982759 | 3.33° C | 87% | 1010 hPa | 0 mm | 6.26 m/s, 359° | - | - |
| 1777982459 | 3.33° C | 87% | 1009.9 hPa | 0 mm | 5.81 m/s, 359° | - | - |
| 1777982159 | 3.33° C | 87% | 1009.8 hPa | 0 mm | 5.81 m/s, 359° | - | - |
| 1777981859 | 3.33° C | 87% | 1009.8 hPa | 0 mm | 5.81 m/s, 359° | - | - |
| 1777981559 | 3.33° C | 87% | 1009.7 hPa | 0 mm | 5.81 m/s, 359° | - | - |
| 1777981444 | 3.33° C | 87% | 1009.6 hPa | 0 mm | 5.81 m/s, 359° | - | - |
| 1777981259 | 3.33° C | 87% | 1009.6 hPa | 0 mm | 5.81 m/s, 359° | - | - |
| 1777980959 | 3.33° C | 87% | 1009.6 hPa | 0 mm | 6.71 m/s, 359° | - | - |
| 1777980659 | 3.33° C | 87% | 1009.3 hPa | 0 mm | 7.6 m/s, 359° | - | - |
| 1777980359 | 3.33° C | 87% | 1009.3 hPa | 0 mm | 7.15 m/s, 359° | - | - |
| 1777980059 | 3.33° C | 87% | 1009.3 hPa | 0 mm | 7.15 m/s, 359° | - | - |
| 1777979759 | 3.33° C | 87% | 1009.2 hPa | 0 mm | 6.71 m/s, 359° | - | - |
| 1777979459 | 3.33° C | 87% | 1009.1 hPa | 0 mm | 6.26 m/s, 359° | - | - |
| 1777979159 | 3.89° C | 88% | 1009.2 hPa | 0 mm | 5.81 m/s, 359° | - | - |
| 1777978859 | 3.89° C | 88% | 1009 hPa | 0 mm | 5.36 m/s, 359° | - | - |
| 1777978559 | 3.33° C | 87% | 1009.1 hPa | 0 mm | 5.36 m/s, 359° | - | - |
| 1777978259 | 3.33° C | 87% | 1009 hPa | 0 mm | 5.36 m/s, 359° | - | - |
* Rain latest hour (hover to see other rain measurements)
** Current wind speed in m/s (hover to see current wind gust speed)